Weather History for Alexandria, Egypt

Change the Weather History Date:

Sunday, July 28, 2013

  Actual Average Record
Temperature  
Mean Temperature 82 °F -  
Max Temperature 89 °F 85 °F 98 °F (2002)
Min Temperature 74 °F 74 °F 69 °F (2000)
Cooling Degree Days 16    
Growing Degree Days 32 (Base 50)    
Moisture  
Dew Point 71 °F    
Average Humidity 71    
Maximum Humidity 89    
Minimum Humidity 41    
Precipitation  
Precipitation 0.00 in 0.00 in - ()
Sea Level Pressure  
Sea Level Pressure 29.75 in    
Wind  
Wind Speed 6 mph ()    
Max Wind Speed 9 mph    
Max Gust Speed -    
Visibility 6.1 miles    
Events      
Averages and records for this station are not official NWS values.
T = Trace of Precipitation, MM = Missing Value Source: Averaged Metar Reports

Daily Weather History Graph

Daily Weather History Graph

Search for Another Location

Airport:

Trip Planner

Search our weather history database for the weather conditions in past years. The results will help you decide how hot, cold, wet, or windy it might be!

Date:

Astronomy

Jul. 28, 2013 Rise Set
Actual Time 5:14 AM EET 6:58 PM EET
Civil Twilight 4:47 AM EET 7:25 PM EET
Nautical Twilight 4:15 AM EET 7:57 PM EET
Astronomical Twilight 3:42 AM EET 8:30 PM EET
Moon 10:39 PM EET (7/28) 11:07 AM EET (7/28)
Length of Visible Light 14h 37m
Length of Day
13h 44m
Waning Gibbous, 63% of the Moon is Illuminated
Jul 28
Waning Gibbous
Jul 29
Last Quarter
Aug 6
New
Aug 14
First Quarter
Aug 21
Full

Hourly Weather History & Observations

Time (EET) Temp. Heat Index Dew Point Humidity Pressure Visibility Wind Dir Wind Speed Gust Speed Precip Events Conditions
12:00 AM 75.2 °F - 71.6 °F 89% 29.71 in 6.2 mi NW 5.8 mph - N/A   Scattered Clouds
1:00 AM 75.2 °F - 71.6 °F 89% 29.71 in 6.2 mi NNW 6.9 mph - N/A   Scattered Clouds
2:00 AM 76 °F - 71 °F 82% 29.71 in 6 mi NW 6.9 mph - -   Partly Cloudy
2:00 AM 75.2 °F - 71.6 °F 89% 29.71 in 6.2 mi NW 6.9 mph - N/A   Scattered Clouds
3:00 AM 75.2 °F - 71.6 °F 89% 29.71 in 6.2 mi NW 8.1 mph - N/A   Scattered Clouds
4:00 AM 75.2 °F - 71.6 °F 89% 29.68 in 6.2 mi NNW 6.9 mph - N/A   Scattered Clouds
5:00 AM 75.2 °F - 71.6 °F 89% 29.71 in 6.2 mi NW 8.1 mph - N/A   Scattered Clouds
6:00 AM 75.2 °F - 69.8 °F 83% 29.68 in 6.2 mi NNW 5.8 mph - N/A   Partly Cloudy
7:00 AM 78.8 °F - 71.6 °F 78% 29.74 in 6.2 mi NNW 8.1 mph - N/A   Partly Cloudy
8:00 AM 80 °F - 72 °F 69% 29.76 in 6 mi NW 5.8 mph - -  
8:00 AM 80.6 °F 84.6 °F 71.6 °F 74% 29.74 in - NW 5.8 mph - N/A   Clear
9:00 AM 86.0 °F 91.8 °F 71.6 °F 62% 29.77 in - NNW 5.8 mph - N/A   Clear
10:00 AM 84.2 °F 89.6 °F 71.6 °F 66% 29.77 in - NNW 4.6 mph - N/A   Clear
11:00 AM 86.0 °F 91.8 °F 71.6 °F 62% 29.77 in - NNW 5.8 mph - N/A   Clear
12:00 PM 86.0 °F 91.8 °F 71.6 °F 62% 29.77 in - NW 5.8 mph - N/A   Clear
1:00 PM 87.8 °F 92.6 °F 69.8 °F 55% 29.77 in - NW 6.9 mph - N/A   Clear
2:00 PM 89 °F - 69 °F 41% 29.78 in 6 mi NW 5.8 mph - -  
2:00 PM 89.6 °F 93.4 °F 68.0 °F 49% 29.77 in - NW 5.8 mph - N/A   Clear
3:00 PM 87.8 °F 91.4 °F 68.0 °F 52% 29.77 in - WNW 5.8 mph - N/A   Clear
4:00 PM 87.8 °F 91.4 °F 68.0 °F 52% 29.77 in - NW 4.6 mph - N/A   Clear
5:00 PM 86.0 °F 90.4 °F 69.8 °F 58% 29.77 in - NW 4.6 mph - N/A   Clear
6:00 PM 82.4 °F 86.3 °F 69.8 °F 66% 29.77 in - North 8.1 mph - N/A   Clear
7:00 PM 82.4 °F 86.3 °F 69.8 °F 66% 29.77 in - North 8.1 mph - N/A   Clear
8:00 PM 80 °F - 70 °F 64% 29.79 in 6 mi North 9.2 mph - -  
8:00 PM 80.6 °F 83.9 °F 69.8 °F 70% 29.77 in - North 9.2 mph - N/A   Clear
9:00 PM 78.8 °F - 71.6 °F 78% 29.80 in - North 6.9 mph - N/A   Clear
10:00 PM 78.8 °F - 71.6 °F 78% 29.80 in - North 5.8 mph - N/A   Clear
11:00 PM 77.0 °F - 69.8 °F 78% 29.80 in - North 4.6 mph - N/A   Clear